SWR2802 LSZH-LSGG

Flight info

Callsign SWR2802
Flight time 0h 32m
Altitude 18000
Route VEBIT T50 ROTOS Z669 ULMES
Aircraft A343/H-SDE2E3FGHIJ4J5M1RWXY/LB1D1

Departure

Time 2026-05-07 01:54
Airport Zürich Airport (LSZH)

Arrival

Time 2026-05-07 02:26
Airport Geneva International Airport (LSGG)
Time Latitude Longitude Altitude Speed Heading
2026-05-07 01:37 47.46065 8.55338 1401 ft 0 kts
2026-05-07 01:45 47.46056 8.55336 1408 ft 4 kts
2026-05-07 01:46 47.46029 8.55329 1405 ft 4 kts 16°
2026-05-07 01:46 47.46004 8.55315 1408 ft 4 kts 31°
2026-05-07 01:46 47.45985 8.55291 1410 ft 4 kts 67°
2026-05-07 01:46 47.45982 8.55272 1410 ft 1 kts 96°
2026-05-07 01:47 47.45982 8.55271 1410 ft 0 kts 96°
2026-05-07 01:49 47.45982 8.55273 1410 ft 2 kts 96°
2026-05-07 01:50 47.45977 8.55341 1409 ft 9 kts 96°
2026-05-07 01:50 47.45969 8.55442 1410 ft 11 kts 96°
2026-05-07 01:50 47.45961 8.55556 1411 ft 12 kts 96°
2026-05-07 01:50 47.45952 8.55681 1407 ft 13 kts 95°
2026-05-07 01:51 47.45943 8.55816 1409 ft 14 kts 96°
2026-05-07 01:51 47.45933 8.55959 1419 ft 14 kts 96°
2026-05-07 01:51 47.45923 8.56109 1415 ft 15 kts 96°
2026-05-07 01:51 47.45912 8.56262 1419 ft 15 kts 96°
2026-05-07 01:52 47.45892 8.56411 1423 ft 14 kts 114°
2026-05-07 01:52 47.45827 8.56515 1426 ft 14 kts 134°
2026-05-07 01:52 47.45795 8.56656 1427 ft 15 kts 95°
2026-05-07 01:52 47.45782 8.56818 1425 ft 16 kts 97°
2026-05-07 01:53 47.45767 8.56975 1428 ft 15 kts 105°
2026-05-07 01:53 47.45692 8.57013 1429 ft 13 kts 217°
2026-05-07 01:53 47.45672 8.56863 1426 ft 25 kts 274°
2026-05-07 01:53 47.45720 8.56204 1422 ft 107 kts 276°
2026-05-07 01:54 47.45824 8.54727 1456 ft 174 kts 276°
2026-05-07 01:54 47.45947 8.52848 2171 ft 193 kts 274°
2026-05-07 01:54 47.46088 8.50757 2918 ft 220 kts 275°
2026-05-07 01:54 47.45912 8.48385 3765 ft 245 kts 246°
2026-05-07 01:55 47.44977 8.46252 5193 ft 246 kts 234°
2026-05-07 01:55 47.43961 8.44323 6840 ft 237 kts 233°
2026-05-07 01:55 47.42946 8.42381 8130 ft 241 kts 234°
2026-05-07 01:55 47.41905 8.40361 9182 ft 252 kts 234°
2026-05-07 01:56 47.40836 8.38269 10223 ft 259 kts 234°
2026-05-07 01:56 47.39711 8.36058 10772 ft 280 kts 234°
2026-05-07 01:56 47.38604 8.33565 11105 ft 302 kts 241°
2026-05-07 01:56 47.37577 8.30751 11602 ft 318 kts 243°
2026-05-07 01:57 47.36540 8.27818 12256 ft 327 kts 243°
2026-05-07 01:57 47.35477 8.24815 13030 ft 333 kts 243°
2026-05-07 01:57 47.34399 8.21764 13827 ft 338 kts 243°
2026-05-07 01:57 47.33298 8.18666 14557 ft 343 kts 243°
2026-05-07 01:58 47.32180 8.15527 15320 ft 347 kts 243°
2026-05-07 01:58 47.31051 8.12356 16065 ft 352 kts 243°
2026-05-07 01:58 47.29923 8.09182 16775 ft 356 kts 243°
2026-05-07 01:58 47.28751 8.05889 17503 ft 361 kts 243°
2026-05-07 01:59 47.27594 8.02641 17886 ft 363 kts 243°
2026-05-07 01:59 47.26464 7.99262 17961 ft 373 kts 246°
2026-05-07 01:59 47.25415 7.95746 17966 ft 376 kts 248°
2026-05-07 01:59 47.24417 7.92181 17967 ft 377 kts 249°
2026-05-07 02:00 47.23441 7.88601 17970 ft 377 kts 249°
2026-05-07 02:00 47.22466 7.85022 17969 ft 377 kts 249°
2026-05-07 02:00 47.21486 7.81453 17971 ft 377 kts 249°
2026-05-07 02:00 47.20496 7.77880 17970 ft 376 kts 248°
2026-05-07 02:01 47.19833 7.75524 17972 ft 377 kts 248°
2026-05-07 02:01 47.18579 7.72132 17973 ft 378 kts 238°
2026-05-07 02:01 47.17086 7.68955 17971 ft 378 kts 235°
2026-05-07 02:01 47.15499 7.65860 17971 ft 379 kts 233°
2026-05-07 02:02 47.13868 7.62827 17971 ft 379 kts 232°
2026-05-07 02:02 47.12215 7.59813 17966 ft 378 kts 232°
2026-05-07 02:02 47.10562 7.56814 17980 ft 377 kts 232°
2026-05-07 02:02 47.08384 7.52848 17974 ft 377 kts 232°
2026-05-07 02:03 47.07277 7.50825 17979 ft 377 kts 232°
2026-05-07 02:03 47.05640 7.47821 17968 ft 377 kts 232°
2026-05-07 02:03 47.04007 7.44820 17968 ft 377 kts 232°
2026-05-07 02:03 47.02374 7.41816 17970 ft 377 kts 233°
2026-05-07 02:04 47.00738 7.38818 17970 ft 377 kts 233°
2026-05-07 02:04 46.99089 7.35807 17966 ft 379 kts 232°
2026-05-07 02:04 46.97459 7.32834 17966 ft 380 kts 232°
2026-05-07 02:04 46.95803 7.29817 17965 ft 380 kts 232°
2026-05-07 02:05 46.94129 7.26765 17966 ft 380 kts 233°
2026-05-07 02:05 46.92499 7.23791 17973 ft 379 kts 233°
2026-05-07 02:05 46.90849 7.20783 17972 ft 379 kts 232°
2026-05-07 02:05 46.89188 7.17761 17990 ft 379 kts 233°
2026-05-07 02:06 46.87537 7.14758 17990 ft 379 kts 232°
2026-05-07 02:06 46.85884 7.11754 17990 ft 379 kts 232°
2026-05-07 02:06 46.84228 7.08750 17992 ft 380 kts 233°
2026-05-07 02:06 46.82573 7.05751 17992 ft 379 kts 232°
2026-05-07 02:07 46.80919 7.02756 17994 ft 379 kts 232°
2026-05-07 02:07 46.77604 6.96759 17993 ft 380 kts 232°
2026-05-07 02:07 46.75947 6.93767 17992 ft 379 kts 232°
2026-05-07 02:08 46.74300 6.90794 17995 ft 380 kts 232°
2026-05-07 02:08 46.72632 6.87788 17993 ft 382 kts 232°
2026-05-07 02:08 46.70960 6.84779 17990 ft 382 kts 232°
2026-05-07 02:08 46.69287 6.81768 17989 ft 382 kts 232°
2026-05-07 02:09 46.67609 6.78755 17987 ft 383 kts 232°
2026-05-07 02:09 46.66004 6.75677 17982 ft 382 kts 238°
2026-05-07 02:09 46.64799 6.72240 17990 ft 380 kts 247°
2026-05-07 02:09 46.63791 6.68740 17987 ft 380 kts 248°
2026-05-07 02:10 46.62785 6.65180 17986 ft 381 kts 248°
2026-05-07 02:10 46.61775 6.61620 17982 ft 381 kts 248°
2026-05-07 02:10 46.60760 6.58063 17980 ft 381 kts 248°
2026-05-07 02:10 46.59740 6.54511 17979 ft 381 kts 248°
2026-05-07 02:11 46.58718 6.50961 17977 ft 381 kts 248°
2026-05-07 02:11 46.57703 6.47437 17530 ft 376 kts 248°
2026-05-07 02:11 46.56690 6.43928 16890 ft 374 kts 249°
2026-05-07 02:11 46.55689 6.40463 16267 ft 372 kts 248°
2026-05-07 02:12 46.54678 6.37003 15541 ft 373 kts 247°
2026-05-07 02:12 46.53334 6.33788 14959 ft 372 kts 232°
2026-05-07 02:12 46.51594 6.31028 14444 ft 369 kts 228°
2026-05-07 02:12 46.49807 6.28406 14022 ft 362 kts 227°
2026-05-07 02:13 46.48047 6.25836 13628 ft 355 kts 227°
2026-05-07 02:13 46.46324 6.23312 13214 ft 349 kts 228°
2026-05-07 02:13 46.44638 6.20838 12842 ft 341 kts 227°
2026-05-07 02:13 46.42986 6.18411 12472 ft 336 kts 227°
2026-05-07 02:14 46.41373 6.16039 12110 ft 334 kts 227°
2026-05-07 02:14 46.39748 6.13652 11753 ft 329 kts 226°
2026-05-07 02:14 46.38128 6.11273 11387 ft 335 kts 226°
2026-05-07 02:14 46.36502 6.08888 11189 ft 328 kts 226°
2026-05-07 02:15 46.34926 6.06580 11030 ft 316 kts 226°
2026-05-07 02:15 46.33410 6.04360 10860 ft 306 kts 226°
2026-05-07 02:15 46.31941 6.02204 10706 ft 296 kts 226°
2026-05-07 02:15 46.30526 6.00139 10393 ft 281 kts 227°
2026-05-07 02:16 46.29157 5.98142 9725 ft 280 kts 227°
2026-05-07 02:16 46.27785 5.96139 9347 ft 278 kts 227°
2026-05-07 02:16 46.26432 5.94164 9031 ft 275 kts 227°
2026-05-07 02:16 46.25092 5.92209 8699 ft 273 kts 227°
2026-05-07 02:17 46.23759 5.90266 8431 ft 272 kts 226°
2026-05-07 02:17 46.22434 5.88330 8142 ft 270 kts 227°
2026-05-07 02:17 46.21135 5.86441 7835 ft 268 kts 226°
2026-05-07 02:17 46.19821 5.84535 7515 ft 267 kts 226°
2026-05-07 02:18 46.18513 5.82639 7193 ft 266 kts 226°
2026-05-07 02:18 46.17208 5.80746 6863 ft 265 kts 226°
2026-05-07 02:18 46.15910 5.78865 6566 ft 264 kts 226°
2026-05-07 02:18 46.14621 5.76998 6203 ft 261 kts 226°
2026-05-07 02:19 46.13270 5.75252 6024 ft 263 kts 214°
2026-05-07 02:19 46.11541 5.74409 5999 ft 266 kts 186°
2026-05-07 02:19 46.09710 5.74825 5993 ft 270 kts 160°
2026-05-07 02:19 46.08014 5.76014 6004 ft 273 kts 152°
2026-05-07 02:20 46.06558 5.77767 6001 ft 276 kts 130°
2026-05-07 02:20 46.05817 5.80298 5997 ft 278 kts 96°
2026-05-07 02:20 46.05914 5.82995 5991 ft 264 kts 78°
2026-05-07 02:20 46.06555 5.85390 5999 ft 250 kts 58°
2026-05-07 02:21 46.07608 5.87312 5846 ft 242 kts 43°
2026-05-07 02:21 46.08833 5.88964 5521 ft 240 kts 42°
2026-05-07 02:21 46.10002 5.90651 5151 ft 235 kts 45°
2026-05-07 02:21 46.11104 5.92297 4781 ft 228 kts 44°
2026-05-07 02:22 46.12199 5.93896 4425 ft 220 kts 44°
2026-05-07 02:22 46.13246 5.95423 4178 ft 209 kts 44°
2026-05-07 02:22 46.14245 5.96887 3875 ft 200 kts 44°
2026-05-07 02:22 46.15203 5.98287 3599 ft 190 kts 46°
2026-05-07 02:23 46.16094 5.99592 3354 ft 176 kts 46°
2026-05-07 02:23 46.16920 6.00803 3119 ft 163 kts 46°
2026-05-07 02:23 46.17680 6.01911 2893 ft 151 kts 46°
2026-05-07 02:23 46.18394 6.02950 2690 ft 141 kts 46°
2026-05-07 02:24 46.19082 6.03956 2512 ft 142 kts 47°
2026-05-07 02:24 46.19763 6.04978 2276 ft 141 kts 46°
2026-05-07 02:24 46.19786 6.05013 2266 ft 141 kts 46°
2026-05-07 02:24 46.20452 6.06018 2105 ft 136 kts 41°
2026-05-07 02:25 46.21128 6.06969 1945 ft 136 kts 41°
2026-05-07 02:25 46.21792 6.07937 1732 ft 136 kts 45°
2026-05-07 02:25 46.22441 6.08892 1535 ft 134 kts 45°
2026-05-07 02:25 46.23105 6.09861 1417 ft 128 kts 45°
2026-05-07 02:26 46.23636 6.10646 1384 ft 96 kts 45°
2026-05-07 02:26 46.24028 6.11222 1378 ft 58 kts 45°
2026-05-07 02:26 46.24226 6.11517 1374 ft 26 kts 49°
2026-05-07 02:26 46.24314 6.11731 1371 ft 26 kts 71°
2026-05-07 02:27 46.24340 6.11908 1369 ft 15 kts 92°
2026-05-07 02:27 46.24315 6.11959 1368 ft 4 kts 167°
2026-05-07 02:27 46.24273 6.11913 1366 ft 13 kts 225°
2026-05-07 02:27 46.24196 6.11800 1368 ft 18 kts 225°
2026-05-07 02:28 46.24103 6.11664 1371 ft 20 kts 226°
2026-05-07 02:28 46.23998 6.11510 1371 ft 23 kts 225°
2026-05-07 02:28 46.23890 6.11354 1375 ft 19 kts 225°
2026-05-07 02:28 46.23836 6.11276 1378 ft 1 kts 225°
2026-05-07 02:29 46.23834 6.11272 1378 ft 1 kts 225°
2026-05-07 02:29 46.23822 6.11254 1380 ft 7 kts 226°
2026-05-07 02:29 46.23772 6.11179 1380 ft 12 kts 226°
2026-05-07 02:29 46.23708 6.11087 1403 ft 12 kts 220°
2026-05-07 02:30 46.23661 6.11089 1403 ft 7 kts 150°
2026-05-07 02:30 46.23602 6.11153 1404 ft 11 kts 159°
2026-05-07 02:30 46.23534 6.11105 1407 ft 13 kts 223°
2026-05-07 02:30 46.23467 6.11007 1406 ft 14 kts 225°
2026-05-07 02:31 46.23404 6.10915 1407 ft 6 kts 226°
2026-05-07 02:31 46.23374 6.10905 1401 ft 5 kts 167°
2026-05-07 02:31 46.23336 6.10952 1407 ft 5 kts 136°
2026-05-07 02:31 46.23326 6.10966 1407 ft 0 kts 136°